Flag Weather past 2 weeks in Aurich, Lower Saxony, Germany

Now
37 °F

Chilly.


Feels Like: 28 °F
Forecast: 32 / 39 °F
Wind: 15 mph from Southeast

Location: Wittmundhaven

Current Time: Nov 27, 2014 at 12:26:21 AM

Latest Report: Nov 26, 2014 at 11:20 PM


Visibility: 4 mi

Pressure: 29.98 "Hg

Humidity: 87%

Dew point: 34 °F

Location of AurichLocation

Historic Weather in Aurich — Graph

°F

Aurich temperature yesterday

Maximum temperature yesterday: 41 °F (at 1:20 PM)
Minimum temperature yesterday: 37 °F (at 8:04 AM)
Average temperature yesterday: 38 °F

Past Weeks' High & Low Weather Summary

 TemperatureHumidityPressure
High54 °F (Nov 14, 3:20 PM)100% (Nov 12, 5:20 AM)30.39 "Hg (Nov 12, 5:20 AM)
Low30 °F (Nov 21, 3:20 AM)71% (Nov 20, 12:20 PM)29.53 "Hg (Nov 16, 12:20 PM)
Average45 °F91%29.99 "Hg
* Reported Nov 11 11:20 PM — Nov 26 11:20 PM, Aurich, Weather by CustomWeather, © 2014

Note: Actual official high and low records may vary slightly from our data, if they occured in-between our weather recording intervals... More about our weather records

Advertising

Aurich weather history for previous 24 hours

 ConditionsComfort  
Time TempWeatherWind HumidityBarometerVisibility
11:20 PM
Nov 26
37 °FChilly.15 mph87%29.98 "Hg4 mi
10:20 PM37 °FChilly.16 mph87%29.98 "Hg4 mi
9:20 PM37 °FChilly.15 mph87%30.01 "Hg4 mi
8:20 PM37 °FChilly.15 mph87%30.01 "Hg4 mi
7:20 PM37 °FChilly.14 mph87%30.01 "Hg4 mi
6:20 PM37 °FChilly.15 mph87%30.01 "Hg4 mi
5:20 PM37 °FPassing clouds.14 mph87%30.01 "Hg6 mi
5:01 PM37 °FPassing clouds.15 mph87%30.04 "Hg6 mi
4:20 PM39 °FPassing clouds.15 mph87%30.04 "Hg6 mi
3:20 PM39 °FPartly sunny.16 mph87%30.04 "HgN/A
2:20 PM41 °FScattered clouds.16 mph81%30.07 "HgN/A
1:20 PM41 °FScattered clouds.14 mph81%30.07 "HgN/A
12:20 PM39 °FPartly sunny.13 mph87%30.09 "HgN/A
11:20 AM37 °FPartly sunny.14 mph87%30.12 "HgN/A
10:20 AM37 °FPartly sunny.15 mph87%30.15 "HgN/A
9:20 AM37 °FPartly sunny.14 mph93%30.15 "HgN/A
8:20 AM37 °FPartly sunny.14 mph93%30.15 "HgN/A
8:04 AM37 °FPassing clouds.16 mph93%30.15 "HgN/A
7:20 AM39 °FPassing clouds.16 mph87%30.15 "HgN/A
6:20 AM39 °FPassing clouds.16 mph93%30.15 "HgN/A
5:20 AM39 °FPassing clouds.15 mph93%30.15 "Hg6 mi
4:20 AM39 °FChilly.13 mph93%30.18 "Hg4 mi
3:20 AM39 °FChilly.14 mph93%30.21 "Hg4 mi
2:20 AM39 °FChilly.12 mph100%30.21 "Hg3 mi
1:20 AM39 °FChilly.10 mph100%30.24 "Hg3 mi
12:20 AM39 °FChilly.10 mph100%30.24 "Hg3 mi
Weather by CustomWeather, © 2014

See weather overviewHow to use our weather pages